Regional Weather Roundup
Issued by NWS Northern Indiana

Home | Current Version | Previous Version | Graphics & Text | Print | Product List | Glossary On
Versions: 1 2 3 4 5 6 7 8 9 10 11 12 13 14 15 16 17 18 19 20 21 22 23 24 25 26 27 28 29 30 31 32 33 34 35 36 37 38 39 40 41 42 43 44 45 46 47 48 49 50
000
ASUS43 KIWX 110000
RWRIWX

KIWX WEATHER ROUNDUP
NATIONAL WEATHER SERVICE NORTHERN INDIANA
700 PM EST SAT DEC 10 2016

NOTE: "FAIR" INDICATES FEW OR NO CLOUDS BELOW 12,000 FEET WITH NO
SIGNIFICANT WEATHER AND/OR OBSTRUCTIONS TO VISIBILITY.

* THESE STATIONS ARE NOT UNDER NWS QUALITY CONTROL. THEY ALSO MAY NOT
  REPORT WEATHER SUCH AS PRECIPITATION OR FOG.

INZ001>027-110100-
NORTHERN INDIANA

CITY           SKY/WX    TMP DP  RH WIND       PRES   REMARKS
GARY*          LGT SNOW  25  21  86 CALM      30.43F
SOUTH BEND     CLOUDY    23  14  68 SW5       30.42S WCI  17
6HR MIN TEMP:  22; 6HR MAX TEMP:  23; 6HR PCP: TRACE;

GOSHEN         CLOUDY    25  13  60 S3        30.41F
6HR MIN TEMP:  24; 6HR MAX TEMP:  27;

WARSAW*        CLOUDY    27  12  54 SW5       30.42S WCI  21
ANGOLA*        CLEAR     23  16  74 S3        30.39F
FORT WAYNE     CLOUDY    25  16  68 S3        30.43F
6HR MIN TEMP:  25; 6HR MAX TEMP:  27; 6HR PCP: TRACE;


$$
INZ028>050-110100-
CENTRAL INDIANA

CITY           SKY/WX    TMP DP  RH WIND       PRES   REMARKS
LAFAYETTE      LGT SNOW  24  19  81 S3        30.43F
6HR MIN TEMP:  24; 6HR MAX TEMP:  27; 6HR PCP: TRACE;

KOKOMO*        FLURRIES  25  20  81 SW7       30.43F WCI  17
6HR MIN TEMP:  25; 6HR MAX TEMP:  28; 6HR PCP: TRACE;

MUNCIE*        CLOUDY    28  15  58 SW8       30.43S WCI  20
6HR MIN TEMP:  26; 6HR MAX TEMP:  29;

INDIANAPOLIS   CLOUDY    28  17  63 S7        30.42F WCI  21
6HR MIN TEMP:  27; 6HR MAX TEMP:  29;


$$
MIZ043>046-050>051-056>058-064>065-071>073-077>080-110100-
SOUTHWEST LOWER MICHIGAN

CITY           SKY/WX    TMP DP  RH WIND       PRES   REMARKS
BATTLE CREEK   CLOUDY    21  18  88 SW9       30.39S WCI  11
6HR MIN TEMP:  18; 6HR MAX TEMP:  24; 6HR PCP: TRACE;

BENTON HARBOR  CLOUDY    24  14  65 S8        30.41S WCI  15
6HR MIN TEMP:  24; 6HR MAX TEMP:  27; 6HR PCP: TRACE;

COLDWATER*     CLOUDY    23  16  74 SW6       30.39F WCI  16
6HR MIN TEMP:  23; 6HR MAX TEMP:  25;

HILLSDALE*     CLOUDY    21  16  79 SW6       30.37F WCI  14
HOLLAND        CLOUDY    26  17  68 SW5       30.38S WCI  20
6HR MIN TEMP:  25; 6HR MAX TEMP:  27; 6HR PCP: TRACE;

GRAND RAPIDS   FLURRIES  22  18  85 S3        30.39R
6HR MIN TEMP:  21; 6HR MAX TEMP:  24; 6HR PCP:  0.01;

KALAMAZOO      CLOUDY    23  15  71 SW9       30.40S WCI  13
6HR MIN TEMP:  23; 6HR MAX TEMP:  24; 6HR PCP: TRACE;

STURGIS*       CLOUDY    23  16  75 S6        30.39F WCI  15
6HR MIN TEMP:  23; 6HR MAX TEMP:  25;

THREE RIVERS*  CLOUDY    23  16  74 SW6       30.41S WCI  15
6HR MIN TEMP:  23; 6HR MAX TEMP:  24;


$$
OHZ001>008-015>018-024>025-110100-
NORTHWEST OHIO

CITY           SKY/WX    TMP DP  RH WIND       PRES   REMARKS
DEFIANCE       CLOUDY    26  15  63 SW3       30.44F
6HR MIN TEMP:  26; 6HR MAX TEMP:  29;

FINDLAY        CLOUDY    26  14  60 SW6       30.44S WCI  19
6HR MIN TEMP:  26; 6HR MAX TEMP:  27;

TOLEDO EXPRESS CLOUDY    25  15  66 SW9       30.43F WCI  15
6HR MIN TEMP:  25; 6HR MAX TEMP:  29; 6HR PCP: TRACE;

TOLEDO METCALF CLOUDY    26  17  68 SW10      30.45S WCI  16
6HR MIN TEMP:  26; 6HR MAX TEMP:  30;

LIMA           CLOUDY    25  16  68 S3        30.43S
6HR MIN TEMP:  24; 6HR MAX TEMP:  26; 6HR PCP: TRACE;


$$
AND FOR LAKE MICHIGAN COASTAL AND OPEN LAKE BUOY OBSERVATIONS

STATION/POSITION TEMP    WIND        PRES    VSBY  WAVE
                 AIR SEA DIR/SP/G                  HT/PER
                 (F)     (DEG/KT/KT) (MB)    (MI)  (FT/S)
CALUMET HARBOR    23     200/  5/  7 1029.4F
BURNS HARBOR      24     210/  8/  9 1030.5F
SAINT JOSEPH      25     180/  5/  9 1029.8

$$
&&



USA.gov is the U.S. government's official web portal to all federal, state and local government web resources and services.